Погода в Приаргунске

Погода в Приаргунске : погода сейчас, прогноз погоды и архив. Всё, что Вы хотите узнать о погоде в Приаргунске!

Хотите узнать прогноз погоды в Приаргунске? Тогда Вам сюда: Погода в Приаргунске

Поиск расширенной информации на нашем сайте:

Другие новости

Новости СМИ2

Главная страница сайта

Новости сайта

03.07.2017

Напоминаем, что на нашем специализированном сайте Метеоцентр.Азия вы можете получить высокодетализированные автоматические прогнозы погоды по пунктам России, СНГ и мира в авиационном формате (включающие направление и скорость ветра, видимость, явления погоды, количество и форму облачности, нижнюю и верхнюю границу облачности).

Рекомендуем: матрасы Поролоновые Спб

Погода в Приаргунске - сегодня

Время (UTC), дата Ветер
(°,м/с) 
Видим.   Явления Облачность Т
(°С)
Тd
(°С)
f(%) Тe
(°С)
Pmin
(гПа)
dP
(гПа)
Po
(мм)
O2
(г/м3)
Тmin Tmax R s Состояние
почвы
18 15.10.17 170 (Ю) н/о    н/о 
-7.4 -12.9 65 -9  1029.8  -0.4  723  300           
21 15.10.17 230 (ЮЗ) 20000 м    ясно 
-4.7 -12.2 56 -9  1028.6  -0.4  722  297           
00 16.10.17 240 (ЮЗ) 20000 м    ясно 
-3.3 -11.8 52 -5  1029  0.7  723  296  -8.5         
03 16.10.17 280 (З) 7-10{10}  20000 м    5/5 1000 м 
[Cu med, cong]
+1.5 -14.5 29 -2  1027.5  -0.4  723  291           
06 16.10.17 290 (З) 8-15{15}  20000 м    3/3 1000 м 
[Cu hum]
+3.2 -17.6 20 1026.6  -0.5  722  289           
09 16.10.17 320 (СЗ) 7{15}  20000 м    3/3 2000 м средняя 
[Ac trans]
-1.2 -21.8 19 -5  1030.1  2.3  724  294           
12 16.10.17 300 (СЗ) 20000 м    ясно 
-5.8 -20.5 30 -8  1033.6  2.2  726  300    +3.5       
15 16.10.17 260 (З) 20000 м    ясно 
-9.7 -19.2 46 -11  1036.4  1.7  727  305           
18 16.10.17 090 (В) 20000 м    ясно 
-13.8 -18 71 -16  1038.1  0.6  727  310           
21 16.10.17 060 (СВ) 20000 м    ясно 
-14.4 -18.4 72 -14  1038.3  727  311           
00 17.10.17 120 (ЮВ) 20000 м    ясно 
-11.8 -16.6 67 -12  1038.1  0.5  728  308  -16.4         
03 17.10.17 150 (ЮВ) 20000 м    ясно 
-0.7 -15.5 32 1033.8  -1.4  727  295           
06 17.10.17 150 (ЮВ) н/о    н/о 
+3.2 -15.9 23 +2  1029  -3.6  724  290           
09 17.10.17 130 (ЮВ) н/о    н/о 
+1.1 -18.6 21 1026.3  -3  722  291           
12 17.10.17 тихо ()   н/о    н/о 
-4.1 -16.3 38 -4  1026.1  -1.3  721  296    +3.8       
15 17.10.17 320 (СЗ) 2000 м    ясно 
-3.2 -15.3 39 -3  1023.8  -1.9  719  294           
18 17.10.17 340 (С) н/о    н/о 
-5.5 -15.1 47 -8  1022  -2.2  718  296           
21 17.10.17 030 (СВ) 20000 м    ясно 
-10.1 -15.5 65 -10  1022.2  -0.9  717  301           
00 18.10.17 тихо ()   20000 м    ясно 
-5.9 -13.3 56 -6  1021.8  0.5  717  297  -11.6         
03 18.10.17 300 (СЗ) 20000 м    ясно 
+4.3 -16.1 21 +5  1019.1  -0.2  717  286           
06 18.10.17 180 (Ю) 20000 м    8/4 600 м кучево-дожд., средняя 
[Cb cap|Ac trans]
+8.3 -13.7 19 +9  1017.1  -1  716  281           
09 18.10.17 010 (С) 20000 м    ясно 
+6.7 -11.2 27 +8  1017.4  716  283           
12 18.10.17 240 (ЮЗ) 20000 м    ясно 
-4.4 -10.8 61 -6  1021.7  1.5  717  295    +9.1       
15 18.10.17 150 (ЮВ) 20000 м    ясно 
-6.5 -10.3 74 -6  1023  0.7  718  297           
18 18.10.17 160 (Ю) 20000 м    ясно 
-9.5 -11.8 83 -9  1023.9  0.1  718  301           
Время (UTC), дата Ветер
(°,м/с) 
Видим.   Явления Облачность Т
(°С)
Тd
(°С)
f(%) Тe
(°С)
Pmin
(гПа)
dP
(гПа)
Po
(мм)
O2
(г/м3)
Тmin Tmax R s Состояние
почвы

Для получения пояснительной информации подведите курсор к названию столбца.

ПОГОДА в Приаргунске - архив

Всё, что Вы хотите узнать о погоде в Приаргунске - удобно и подробно!

Выберите нужную дату (начиная с 1 января 2015* года) и нажмите кнопку "Найти".
Будут отображены архивные сводки погоды по пункту Приаргунск, начиная с указанной даты.


Отображать данные в формате CSV (для использования в таблицах Excel)


Внимание! Наш архив погоды предназначен исключительно для личного некоммерческого использования в познавательных целях. Если Вам необходимы официальные справки о состоянии погоды (для производственных, юридических, коммерческих и т.п. целей), обращайтесь в органы Росгидромета.

*Примечание: данная дата относится к архиву по метеостанциям СССР (Россия, СНГ, Балтия).
Архив по метеостанциям Зарубежной Европы и Азии (кроме Китая) хранится 10 дней, по другим регионам земного шара (Китай, Африка, Америка, Австралия, Океания) - 1 день.

Приаргунск - район местоположения метеостанции


Название, широта, долгота, высота метеостанции:
Приаргунск 50.4°ш. 119.1°д. 521 м над ур. моря [Российская Федерация]

Дополнительная информация

В oтличие oт бoльшинства пoгoдных сайтoв мы публикуем пoдрoбную метеoинфoрмацию в детальнoм прoфессиoнальнoм фoрмате.

Характеристики температуры и влажнoсти вoздуха измеряются на высoте 2 м в тени вдали oт зданий и деревьев.
Скoрoсть ветра измеряется на высoте 10 м (на урoвне рoста челoвека скoрoсть ветра ниже в 1.5-2 раза). Если метеoстанция нахoдится в гoрoде или в лесу, тo скoрoсть ветра занижена на 2-4 м/с пo сравнению с oткрытым местoм. Скoрoсть ветра над акватoриями крупных рек и oзёр, а также на вершинах хoлмoв на 2-5 м/с выше, чем в oбычных услoвиях.
Атмoсфернoе давление в разных тoчках местнoсти мoжет значительнo oтличаться oт давления на метеoстанции, в зависимoсти oт услoвий рельефа (при пoдъёме на 10 м давление пoнижается примернo на 1 мм рт.ст.).